Tracking 28052 objects as of 22-Sep-2023
HD Live streaming from Space Station
objects crossing your sky now

BLACK ARROW R/B

Track BLACK ARROW R/B now!
10-day predictions


NORAD ID: 5581
Int'l Code: 1971-093B
Perigee: 534.7 km
Apogee: 1,299.7 km
Inclination: 82.0 °
Period: 103.2 minutes
Semi major axis: 7288 km
RCS: 0.8037 m2 (medium)
Launch date: October 28, 1971
Source: United Kingdom (UK)
Launch site: WOOMERA (WOMRA)

Note: This is a ROCKET BODY
Your satellite tracking list
Your tracking list is empty




NASA's NSSDC Master Catalog

Two Line Element Set (TLE):
1  5581U 71093B   23265.07396649  .00001563  00000-0  35286-3 0  9993
2  5581  82.0377 117.8138 0524803 313.9837  41.9158 13.95320212607350
Source of the keplerian elements: AFSPC